Regional Weather Roundup
Issued by NWS

Home | Current Version | Previous Version | Graphics & Text | Print | Product List | Glossary Off
Versions: 1 2 3 4 5 6 7 8 9 10 11 12 13 14 15 16 17 18 19 20 21 22 23 24 25 26 27 28 29 30 31 32 33 34 35 36 37 38 39 40 41 42 43 44 45 46 47 48 49

000
ASUS45 KSLC 252310
RWRUT

UTAH REGIONAL WEATHER ROUNDUP
NATIONAL WEATHER SERVICE SALT LAKE CITY UT
500 PM MDT FRI JUL 25 2014

UTZ001>011-023>025-260000-

NORTHERN UTAH

CITY           SKY/WX    TMP DP  RH WIND       PRES   REMARKS
HILL AFB       SUNNY     89  37  15 N10       30.03F
LOGAN          SUNNY     89  36  15 S8        30.01F
OGDEN          SUNNY     91  35  13 MISG      29.99F
PROVO AIRPORT  MOSUNNY   93  54  26 NW14      29.96F HX  91
SALT LAKE CITY MOSUNNY   91  39  16 N14G23    29.96F
VERNAL         MOSUNNY   94  40  15 W8G20     30.00F HX  90
WENDOVER       SUNNY     91  30  11 E6        29.97F
HEBER CITY     SUNNY     91  34  13 SW18G24   30.05F
WEST JORDAN    SUNNY     91  52  25 NW15      30.00F

$$

UTZ012>022-026-027-260000-

SOUTHERN UTAH

CITY           SKY/WX    TMP DP  RH WIND       PRES   REMARKS
BRYCE CANYON   PTSUNNY   83  46  27 S24G30    30.29F
CEDAR CITY     CLOUDY    87  45  23 S24G30    30.13S
MILFORD        MOSUNNY   96  45  17 SW26G40   30.02F HX  92
MOAB/CYNLANDS  SUNNY     96  42  15 SE9G18    30.00F HX  92
PRICE          MOSUNNY   93  33  12 VRB5      30.08F
ST GEORGE      CLEAR     99  52  20 SW21G28   29.94F HX  96
KANAB            N/A     90  46  22 SW15      30.13F

$$

REGIONAL REPORTS     COLORADO/ARIZONA

CITY           SKY/WX    TMP DP  RH WIND       PRES   REMARKS
CRAIG, CO      PTSUNNY   76  53  44 S12       30.13F
GRAND JUNCTION CLOUDY    74  61  63 SE8       30.08F
RIFLE          CLOUDY    82  47  29 SW12      30.15R
MONTROSE       PTSUNNY   85  52  32 N21G26    30.18S
CORTEZ         SUNNY     91  43  18 W10       30.15F
PAGE, AZ       MOSUNNY   96  45  17 N9        30.03F HX  92
GRAND CANYON   CLOUDY    80  50  34 W17G25    30.27F
KINGMAN        PTSUNNY   97  57  26 E15       29.99F HX  96
FLAGSTAFF      PTSUNNY   83  43  24 W9G20     30.27F

$$

REGIONAL REPORTS    NEVADA/IDAHO/WYOMING

CITY           SKY/WX    TMP DP  RH WIND       PRES   REMARKS
LAS VEGAS, NV  PTSUNNY  104  46  14 SW13      29.81F HX 100
ELY            SUNNY     93  18   6 SW18G29   30.08F
ELKO           SUNNY     94  16   6 W24       30.02F
POCATELLO, ID  SUNNY     84  27  12 W15       30.06F
BURLEY         SUNNY     82  37  20 NW8       30.03F
EVANSTON, WY   SUNNY     86  31  13 SW24G38   30.19F
ROCK SPRINGS   SUNNY     90  25   9 W26G43    30.11F

$$



USA.gov is the U.S. government's official web portal to all federal, state and local government web resources and services.